Location: Dumpton Point
(51.3500°N, 1.4433°E)
Time: 18:27:35
(UTC+00:00)

Mayak - Pass Details

Date: 09 April 2020
Orbit: 581 x 601 km, 97.5° (Epoch: 23 May)

Event Time Altitude Azimuth Distance (km) Brightness Sun altitude
Rises 22:00:04 0° 16° (NNE) 2,825 ? -25.6°
Reaches altitude 10° 22:02:17 10° 21° (NNE) 1,917 ? -25.8°
Enters shadow 22:04:48 34° 37° (NE) 980 ? -26.0°
